User: anonymous   Login
Location: Possagno
(45.8500°N, 11.8667°E)
Time: 14:17:11
(UTC+00:00)
Language:

SL-08 R/B - Orbit

View from above orbital plane
View from above orbital plane
View from above satellite
View from above satellite

Ground track
Ground track

The orbit data is extracted from the following two-line orbital elements,

1 27561U 02054C   21173.90081904  .00000069  00000-0  26660-4 0  9996
2 27561  98.4633 330.8085 0045497 333.7617  26.1275 14.55902044985595
Epoch (UTC): 22 June 2021 21:37:10
Eccentricity: 0.0045497
inclination: 98.4633°
perigee height: 674 km
apogee height: 738 km
right ascension of ascending node: 330.8085°
argument of perigee: 333.7617°
revolutions per day: 14.55902044
mean anomaly at epoch: 26.1275°
orbit number at epoch: 98559

The dashed part of the orbit path shows where the satellite is in the earth's shadow,  

DLR